Location: Lecco
(45.8566°N, 9.3977°E)
Time: 21:16:53
(UTC+02:00)

OTV 5 (USA 277) - Pass Details

Date: 19 June 2019
Orbit: 299 x 335 km, 54.5° (Epoch: 13 July)

Event Time Altitude Azimuth Distance (km) Brightness Sun altitude
Exits shadow 01:00:39 24° 291° (WNW) 745 ? -20.5°
Maximum altitude 01:01:41 33° 334° (NNW) 594 ? -20.5°
Drops below altitude 10° 01:04:17 10° 42° (NE) 1,266 ? -20.6°
Enters shadow 02:10:09 -49° 258° (WSW) 10,012 ? -19.9°
